Location: La Brionne
(46.1728°N, 1.7849°E)
Time: 06:58:25
(UTC+00:00)

BREEZE-M DEB (TANK) - Pass Details

Date: 16 June 2021
Orbit: 334 x 16573 km, 49.3° (Epoch: 01 August)

Event Time Altitude Azimuth Distance (km) Brightness Sun altitude
Rises 22:46:13 0° 234° (SW) 7,979 8.0 -18.8°
Reaches altitude 10° 22:53:43 10° 233° (SW) 4,943 6.9 -19.1°
Maximum altitude 23:03:23 60° 157° (SSE) 901 3.0 -19.5°
Drops below altitude 10° 23:06:34 10° 75° (ENE) 1,677 4.8 -19.6°
Sets 23:07:56 0° 71° (ENE) 2,329 5.6 -19.7°
